STARLINK-35185, 65608

Orbit data source: Space-Track

STARLINK-35185, 65608 is a payload satellite owned by SpaceX/Seattle (US) in SSO that was launched on Sat, 13 Sep 2025 UTC via an FALCON 9 launch vehicle from the Air Force Eastern Test Range (AFETR). Payload-class satellites include a variety of spacecraft equipped with specific instruments for various scientific and technological missions. These include communications satellites like Starlink; space stations such as the ISS; scientific satellites like the Hubble; Earth observation satellites from companies like Planet Labs, Umbra, and HawkEye 360; GPS; miniature CubeSats for education and research; and military/defense satellites.

Loading next visibility...
Identifier
65608, 2025-207S
Orbit
SSO
Country
Flag of USUS
Related business
Manufacturer
SpaceX/Seattle
Mission
Operational Commercial Communications
Bus & Motor
STARLINK V2MO, Unknown motor
Mass
575 kg wet, ~530 kg dry
Launch date (UTC)
2025-09-13 (9 months ago)
Launch vehicle
FALCON 9
Launch site
Air Force Eastern Test Range (AFETR)
Object type
Payload
Rocket body
Debris
Shape & HBR
Box + 2 Pan, 17.7 m
Radar Cross Section
36.964 m², Large (>1 m²)

Expand to show TLE details & history
Last TLE update: 22 hours ago

TLE from 22 hours ago
0 STARLINK-35185
1 65608U 25207S   26166.19493877  .00004705  00000-0  32979-3 0  9999
2 65608  97.3544 233.8645 0001680 107.1080 253.0332 15.05658497 42938
Epoch: 2026-06-15T04:40Z
TLE epoch observation values (Epoch: 2026-06-15T04:40:42.709Z)
Latitude
Longitude
-99.79827°
Altitude
552.897 km
Speed
7.585 km/s
True Right ascension
15h 35m 27s
True Declination
0° 00' 00"
Sunlit
Object was in full shadow at epoch
Visualization orbit readout
Latitude
Unknown
Longitude
Unknown
Altitude
Unknown
Speed
Unknown
Apparent Right ascension
Unknown
Apparent Declination
Unknown
Sunlit
N/A
Visualization observer readout
Local Sidereal Time
13:37:03
Azimuth
Unknown
Elevation
Unknown
Doppler factor
Unknown
Orbital elements
Apogee altitude
547.631 km
Perigee altitude
545.305 km
Semi-major axis
6,924.605 km
Eccentricity
0.00017
Inclination
97.3544°
RAAN
233.8645°
Arg. of periapsis
107.108°
True anomaly
253.01479°
Mean anomaly
253.0332°
Eccentric anomaly
253.02399°
Mean motion
3.76661 °/min
Orbital period
95.58 mins
BSTAR
0.00032979
Loading maneuver chart data...
Computing Atmospheric mass density...
Loading historical data...
Loading historical data...
Loading historical data...
Loading historical data...
Loading historical data...
Loading historical data...
Loading historical data...

Documentation

Showing up to 5 results
|